Simultaneous Nadir Overpasses (SNOs) Predictions

Prediction of SNOs between LANDSAT-8 and METOP-A Satellite Orbit:

Table of predicted SNOs for the next 14.0 days since TLE Epoch: 10/6/2018
Index Date (LANDSAT-8) Time (LANDSAT-8) Lat,Lon (LANDSAT-8) SZA (LANDSAT-8 ) Date (METOP-A) Time (METOP-A) Lat,Lon (METOP-A) SZA (METOP-A ) Distance(km) Time Diff (sec)
1 10/06/2018 10:24:01 -81.41,-111.01 90.63 10/06/2018 10:23:24 -81.40,-111.17 90.67 2.78 37
2 10/06/2018 11:13:27 81.41, 56.77 89.41 10/06/2018 11:14:03 81.41, 56.90 89.44 2.33 36
3 10/09/2018 05:58:17 -81.40, -44.75 89.56 10/09/2018 05:57:39 -81.40, -44.69 89.57 1.15 38
4 10/09/2018 06:47:43 81.40, 122.99 90.47 10/09/2018 06:48:19 81.41, 122.98 90.49 0.40 36
5 10/12/2018 01:32:33 -81.41, 21.86 88.46 10/12/2018 01:31:55 -81.40, 21.78 88.49 1.40 38
6 10/12/2018 02:21:59 81.41,-170.42 91.57 10/12/2018 02:22:35 81.41,-170.56 91.57 2.28 36
7 10/14/2018 21:06:50 -81.40, 88.06 87.43 10/14/2018 21:06:11 -81.40, 88.24 87.42 3.13 39
8 10/14/2018 21:56:15 81.42,-103.87 92.65 10/14/2018 21:56:50 81.41,-103.72 92.68 2.56 35
9 10/17/2018 16:41:05 -81.40, 154.61 86.37 10/17/2018 16:40:26 -81.40, 154.68 86.38 1.23 39




NCC Satellite Simultaneous Nadir Overpasses (SNOs) Prediction Service
